This is the latest recevied weather packets stored in our database for station/object SP6PGH-13. If no packets are shown the sender has not sent any weather packets the latest 10 day(s).
| Time | Temp. | Humidity | Pressure | Rain* | Wind** | Luminosity | Snow |
|---|---|---|---|---|---|---|---|
| 1777392531 | 13.89° C | 24% | 1009.4 hPa | - | - | 134 W/m² | - |
| 1777391630 | 13.33° C | 24% | 1009.4 hPa | - | - | 147 W/m² | - |
| 1777390730 | 14.44° C | 23% | 1009.4 hPa | - | - | 201 W/m² | - |
| 1777389828 | 14.44° C | 23% | 1009.3 hPa | - | - | 251 W/m² | - |
| 1777388928 | 14.44° C | 23% | 1009.4 hPa | - | - | 286 W/m² | - |
| 1777388027 | 15.56° C | 20% | 1009.5 hPa | - | - | 322 W/m² | - |
| 1777387126 | 15° C | 21% | 1009.5 hPa | - | - | 357 W/m² | - |
| 1777386225 | 15° C | 21% | 1009.5 hPa | - | - | 398 W/m² | - |
| 1777385323 | 15° C | 23% | 1009.5 hPa | - | - | 435 W/m² | - |
| 1777384422 | 14.44° C | 23% | 1009.8 hPa | - | - | 477 W/m² | - |
| 1777383521 | 15° C | 24% | 1009.9 hPa | - | - | 502 W/m² | - |
| 1777382620 | 14.44° C | 22% | 1009.9 hPa | - | - | 557 W/m² | - |
| 1777381719 | 13.89° C | 23% | 1010.1 hPa | - | - | 587 W/m² | - |
| 1777380817 | 13.89° C | 23% | 1010.1 hPa | - | - | 618 W/m² | - |
| 1777379916 | 13.89° C | 24% | 1010.2 hPa | - | - | 644 W/m² | - |
| 1777379015 | 13.89° C | 25% | 1010.4 hPa | - | - | 663 W/m² | - |
| 1777378114 | 13.33° C | 24% | 1010.4 hPa | - | - | 675 W/m² | - |
| 1777377213 | 13.33° C | 24% | 1010.5 hPa | - | - | 689 W/m² | - |
| 1777376312 | 13.33° C | 24% | 1010.5 hPa | - | - | 701 W/m² | - |
| 1777375410 | 13.33° C | 26% | 1010.6 hPa | - | - | 710 W/m² | - |
| 1777374509 | 13.33° C | 26% | 1010.8 hPa | - | - | 720 W/m² | - |
| 1777373608 | 12.78° C | 26% | 1010.9 hPa | - | - | 724 W/m² | - |
| 1777372707 | 12.78° C | 28% | 1011 hPa | - | - | 710 W/m² | - |
| 1777371806 | 12.22° C | 30% | 1010.9 hPa | - | - | 707 W/m² | - |
| 1777370905 | 12.78° C | 28% | 1011 hPa | - | - | 702 W/m² | - |
* Rain since midnight (hover to see other rain measurements)
** Current wind speed in m/s (hover to see current wind gust speed)